Flight Track Log - Related Links

Times and Time Zones

All times are in EDT time to prevent confusion due to time zone crossing. See the DLH325 flight status page for this flight to view local times or setup timezone preferences in your user account.

Time Position Orientation Groundspeed Altitude Reporting Facility
EDT Latitude Longitude Course Direction KTS MPH feet Rate Location/Type
Sun 04:24:47 AM 45.5220 12.3750 46° Northeast 163 188 1,400  Level FlightAware ADS-B
Sun 04:25:08 AM 45.5310 12.3890 47° Northeast 166 191 2,100 2,308 Climbing FlightAware ADS-B
Sun 04:25:13 AM 45.5340 12.3950 54° Northeast 170 196 2,400 2,400 Climbing FlightAware ADS-B
Sun 04:25:23 AM 45.5360 12.4070 77° East 174 200 2,700 1,920 Climbing FlightAware ADS-B
Sun 04:25:38 AM 45.5340 12.4250 99° East 182 209 3,200 1,538 Climbing FlightAware ADS-B
Sun 04:26:02 AM 45.5310 12.4550 98° East 203 234 3,700 1,867 Climbing FlightAware ADS-B
Sun 04:26:23 AM 45.5280 12.4820 99° East 207 238 4,600 2,516 Climbing FlightAware ADS-B
Sun 04:26:33 AM 45.5260 12.4960 102° East 206 237 5,000 2,400 Climbing FlightAware ADS-B
Sun 04:26:43 AM 45.5220 12.5080 115° Southeast 204 235 5,400 2,400 Climbing FlightAware ADS-B
Sun 04:26:58 AM 45.5100 12.5220 141° Southeast 203 234 6,000 2,400 Climbing FlightAware ADS-B
Sun 04:27:03 AM 45.5060 12.5240 161° South 203 234 6,200 1,800 Climbing FlightAware ADS-B
Sun 04:27:08 AM 45.5020 12.5260 161° South 194 223 6,300 2,000 Climbing FlightAware ADS-B
Sun 04:27:12 AM 45.4970 12.5260 180° South 193 222 6,500 1,400 Climbing FlightAware ADS-B
Sun 04:27:38 AM 45.4780 12.5090 212° Southwest 212 244 7,000 1,200 Climbing FlightAware ADS-B
Sun 04:27:42 AM 45.4760 12.5020 248° West 222 255 7,100 1,200 Climbing FlightAware ADS-B
Sun 04:27:48 AM 45.4750 12.4950 258° West 231 266 7,200 1,313 Climbing FlightAware ADS-B
Sun 04:28:14 AM 45.4890 12.4570 298° West 267 307 7,800 1,957 Climbing FlightAware ADS-B
Sun 04:28:34 AM 45.5060 12.4290 311° West 275 316 8,700 2,700 Climbing FlightAware ADS-B
Sun 04:28:54 AM 45.5220 12.4030 311° West 277 319 9,600 2,291 Climbing FlightAware ADS-B
Sun 04:29:29 AM 45.5520 12.3530 311° West 298 343 10,800 1,714 Climbing FlightAware ADS-B
Sun 04:30:04 AM 45.5860 12.2940 309° West 335 386 11,600 1,629 Climbing FlightAware ADS-B
Sun 04:30:39 AM 45.6220 12.2340 311° West 359 413 12,700 2,366 Climbing FlightAware ADS-B
Sun 04:31:15 AM 45.6570 12.1730 309° West 354 407 14,400 2,657 Climbing FlightAware ADS-B
Sun 04:31:49 AM 45.6970 12.1090 312° West 366 421 15,800 2,197 Climbing FlightAware ADS-B
Sun 04:32:26 AM 45.7370 12.0440 311° West 371 427 17,000 2,143 Climbing FlightAware ADS-B
Sun 04:32:59 AM 45.7740 11.9840 311° West 375 432 18,300 2,063 Climbing FlightAware ADS-B
Sun 04:33:30 AM 45.8120 11.9230 312° West 388 447 19,200 1,913 Climbing FlightAware ADS-B
Sun 04:34:08 AM 45.8630 11.8420 312° West 404 465 20,500 1,923 Climbing FlightAware ADS-B
Sun 04:34:48 AM 45.9120 11.7630 312° West 409 471 21,700 1,800 Climbing FlightAware ADS-B
Sun 04:35:18 AM 45.9510 11.7010 312° West 415 478 22,600 1,754 Climbing FlightAware ADS-B
Sun 04:35:53 AM 45.9950 11.6310 312° West 414 476 23,600 1,543 Climbing FlightAware ADS-B
Sun 04:36:28 AM 46.0420 11.5570 312° West 426 490 24,400 1,457 Climbing FlightAware ADS-B
Sun 04:37:03 AM 46.0870 11.4860 312° West 432 497 25,300 1,500 Climbing FlightAware ADS-B
Sun 04:37:28 AM 46.1270 11.4390 321° Northwest 446 513 25,900 1,322 Climbing FlightAware ADS-B
Sun 04:38:02 AM 46.1990 11.3980 338° Northwest 457 526 26,600 1,200 Climbing FlightAware ADS-B
Sun 04:38:33 AM 46.2560 11.3690 341° North 462 532 27,200 1,273 Climbing FlightAware ADS-B
Sun 04:39:08 AM 46.3270 11.3320 340° North 464 534 28,000 1,120 Climbing FlightAware ADS-B
Sun 04:39:48 AM 46.4090 11.2900 341° North 463 533 28,600 1,200 Climbing FlightAware ADS-B
Sun 04:40:23 AM 46.4800 11.2500 339° North 469 540 29,500 1,545 Climbing FlightAware ADS-B
Sun 04:40:54 AM 46.5410 11.2150 338° Northwest 465 535 30,300 1,433 Climbing FlightAware ADS-B
Sun 04:41:30 AM 46.6080 11.1760 338° Northwest 452 520 31,100 1,040 Climbing FlightAware ADS-B
Sun 04:42:09 AM 46.6820 11.1340 339° North 448 516 31,600 870 Climbing FlightAware ADS-B
Sun 04:42:39 AM 46.7480 11.0950 338° Northwest 452 520 32,100 960 Climbing FlightAware ADS-B
Sun 04:43:24 AM 46.8370 11.0430 338° Northwest 455 524 32,800 1,059 Climbing FlightAware ADS-B
Sun 04:44:04 AM 46.9170 10.9960 338° Northwest 454 522 33,600 960 Climbing FlightAware ADS-B
Sun 04:44:39 AM 46.9790 10.9600 338° Northwest 456 525 34,000 343 Climbing FlightAware ADS-B
Sun 04:45:14 AM 47.0550 10.9140 338° Northwest 459 528 34,000  Level FlightAware ADS-B
Sun 04:45:49 AM 47.1190 10.8650 332° Northwest 459 528 34,000  Level FlightAware ADS-B
Sun 04:46:24 AM 47.1840 10.8130 331° Northwest 460 529 34,000  Level FlightAware ADS-B
Sun 04:46:59 AM 47.2490 10.7600 331° Northwest 462 532 34,000  Level FlightAware ADS-B
Sun 04:47:33 AM 47.3170 10.7040 331° Northwest 463 533 34,000  Level FlightAware ADS-B
Sun 04:48:09 AM 47.3820 10.6510 331° Northwest 464 534 34,000  Level FlightAware ADS-B
Sun 04:48:48 AM 47.4550 10.5910 331° Northwest 464 534 34,000  Level FlightAware ADS-B
Sun 04:49:18 AM 47.5150 10.5410 331° Northwest 464 534 34,000  Level FlightAware ADS-B
Sun 04:49:49 AM 47.5710 10.4950 331° Northwest 463 533 34,000 -417 Level FlightAware ADS-B
Sun 04:50:30 AM 47.6470 10.4320 331° Northwest 455 524 33,500 -1,063 Descending FlightAware ADS-B
Sun 04:51:08 AM 47.7160 10.3750 331° Northwest 451 519 32,600 -1,457 Descending FlightAware ADS-B
Sun 04:51:40 AM 47.7720 10.3260 330° Northwest 458 527 31,800 -1,500 Descending FlightAware ADS-B
Sun 04:52:16 AM 47.8380 10.2650 328° Northwest 457 526 30,900 -1,588 Descending FlightAware ADS-B
Sun 04:52:48 AM 47.8960 10.2110 328° Northwest 458 527 30,000 -1,676 Descending FlightAware ADS-B
Sun 04:53:24 AM 47.9590 10.1530 328° Northwest 458 527 29,000 -1,833 Descending FlightAware ADS-B
Sun 04:54:00 AM 48.0230 10.0930 328° Northwest 458 527 27,800 -2,189 Descending FlightAware ADS-B
Sun 04:54:38 AM 48.0950 10.0260 328° Northwest 459 528 26,300 -2,104 Descending FlightAware ADS-B
Sun 04:55:17 AM 48.1620 9.9640 328° Northwest 446 513 25,100 -2,053 Descending FlightAware ADS-B
Sun 04:55:54 AM 48.2280 9.9020 328° Northwest 433 498 23,700 -2,087 Descending FlightAware ADS-B
Sun 04:56:26 AM 48.2810 9.8550 329° Northwest 423 487 22,700 -1,522 Descending FlightAware ADS-B
Sun 04:57:01 AM 48.3400 9.8050 331° Northwest 407 468 22,000 -583 Descending FlightAware ADS-B
Sun 04:57:38 AM 48.4090 9.7780 345° North 410 472 22,000  Level FlightAware ADS-B
Sun 04:58:14 AM 48.4770 9.7580 349° North 414 476 22,000  Level FlightAware ADS-B
Sun 04:58:49 AM 48.5430 9.7390 349° North 416 479 22,000  Level FlightAware ADS-B
Sun 04:59:21 AM 48.6040 9.7210 349° North 414 476 22,000  Level FlightAware ADS-B
Sun 04:59:58 AM 48.6740 9.7010 349° North 415 478 22,000  Level FlightAware ADS-B
Sun 05:00:31 AM 48.7350 9.6830 349° North 414 476 22,000  Level FlightAware ADS-B
Sun 05:01:07 AM 48.8030 9.6640 350° North 414 476 22,000  Level FlightAware ADS-B
Sun 05:01:43 AM 48.8700 9.6440 349° North 417 480 22,000  Level FlightAware ADS-B
Sun 05:02:19 AM 48.9380 9.6240 349° North 418 481 22,000 -174 Level FlightAware ADS-B
Sun 05:02:52 AM 49.0010 9.6060 349° North 417 480 21,800 -1,147 Descending FlightAware ADS-B
Sun 05:03:27 AM 49.0660 9.5870 349° North 410 472 20,700 -2,055 Descending FlightAware ADS-B
Sun 05:04:05 AM 49.1370 9.5660 349° North 398 458 19,300 -2,087 Descending FlightAware ADS-B
Sun 05:04:36 AM 49.1920 9.5500 349° North 390 449 18,300 -2,057 Descending FlightAware ADS-B
Sun 05:05:15 AM 49.2590 9.5300 349° North 381 438 16,900 -2,113 Descending FlightAware ADS-B
Sun 05:05:47 AM 49.3160 9.5130 349° North 374 430 15,800 -1,727 Descending FlightAware ADS-B
Sun 05:06:21 AM 49.3730 9.4960 349° North 365 420 15,000 -676 Descending FlightAware ADS-B
Sun 05:06:58 AM 49.4340 9.4780 349° North 366 421 15,000  Level FlightAware ADS-B
Sun 05:07:33 AM 49.4900 9.4610 349° North 373 429 15,000  Level FlightAware ADS-B
Sun 05:08:06 AM 49.5490 9.4430 349° North 376 433 15,000 -254 Level FlightAware ADS-B
Sun 05:08:44 AM 49.6130 9.4240 349° North 376 433 14,700 -904 Descending FlightAware ADS-B
Sun 05:09:19 AM 49.6690 9.4070 349° North 371 427 13,900 -1,522 Descending FlightAware ADS-B
Sun 05:09:51 AM 49.7230 9.3910 349° North 365 420 13,000 -1,612 Descending FlightAware ADS-B
Sun 05:10:26 AM 49.7840 9.3730 349° North 358 412 12,100 -1,606 Descending FlightAware ADS-B
Sun 05:11:02 AM 49.8390 9.3520 346° North 347 399 11,100 -1,565 Descending FlightAware ADS-B
Sun 05:11:12 AM 49.8520 9.3390 327° Northwest 337 388 10,900 -1,091 Descending FlightAware ADS-B
Sun 05:11:24 AM 49.8660 9.3250 327° Northwest 328 377 10,700 -938 Descending FlightAware ADS-B
Sun 05:11:44 AM 49.8970 9.3130 346° North 314 361 10,400 -692 Descending FlightAware ADS-B
Sun 05:12:16 AM 49.9410 9.3030 352° North 289 333 10,100 -353 Descending FlightAware ADS-B
Sun 05:12:52 AM 49.9880 9.2930 352° North 279 321 10,000 -100 Descending FlightAware ADS-B
Sun 05:13:16 AM 50.0180 9.2850 350° North 283 326 10,000 -167 Level FlightAware ADS-B
Sun 05:13:28 AM 50.0330 9.2820 353° North 282 325 9,900 -706 Descending FlightAware ADS-B
Sun 05:13:50 AM 50.0590 9.2750 350° North 276 318 9,600 -682 Descending FlightAware ADS-B
Sun 05:14:12 AM 50.0870 9.2680 351° North 276 318 9,400 -529 Descending FlightAware ADS-B
Sun 05:14:24 AM 50.1040 9.2640 351° North 276 318 9,300 -400 Descending FlightAware ADS-B
Sun 05:14:42 AM 50.1250 9.2590 351° North 264 304 9,200 -450 Descending FlightAware ADS-B
Sun 05:15:04 AM 50.1530 9.2520 351° North 249 287 9,000 -522 Descending FlightAware ADS-B
Sun 05:15:28 AM 50.1800 9.2450 351° North 243 280 8,800 -600 Descending FlightAware ADS-B
Sun 05:15:44 AM 50.1970 9.2410 351° North 243 280 8,600 -500 Descending FlightAware ADS-B
Sun 05:16:04 AM 50.2190 9.2350 350° North 244 281 8,500 -375 Descending FlightAware ADS-B
Sun 05:16:16 AM 50.2330 9.2320 352° North 244 281 8,400 -429 Descending FlightAware ADS-B
Sun 05:16:32 AM 50.2500 9.2250 345° North 244 281 8,300 -500 Descending FlightAware ADS-B
Sun 05:16:40 AM 50.2580 9.2170 327° Northwest 244 281 8,200 -500 Descending FlightAware ADS-B
Sun 05:16:44 AM 50.2610 9.2120 313° West 244 281 8,200  Level FlightAware ADS-B
Sun 05:16:52 AM 50.2650 9.2000 298° West 244 281 8,200 -375 Level FlightAware ADS-B
Sun 05:17:00 AM 50.2680 9.1890 293° West 245 282 8,100 -500 Descending FlightAware ADS-B
Sun 05:17:04 AM 50.2680 9.1810 270° West 246 283 8,100  Level FlightAware ADS-B
Sun 05:17:26 AM 50.2610 9.1460 253° West 250 288 8,100 -188 Level FlightAware ADS-B
Sun 05:17:36 AM 50.2510 9.1310 224° Southwest 252 290 8,000 -200 Descending FlightAware ADS-B
Sun 05:17:56 AM 50.2350 9.1090 221° Southwest 256 295 8,000  Level FlightAware ADS-B
Sun 05:18:16 AM 50.2160 9.0830 221° Southwest 256 295 8,000 -300 Level FlightAware ADS-B
Sun 05:18:36 AM 50.1980 9.0600 219° Southwest 243 280 7,800 -682 Descending FlightAware ADS-B
Sun 05:19:00 AM 50.1780 9.0330 221° Southwest 233 268 7,500 -933 Descending FlightAware ADS-B
Sun 05:19:21 AM 50.1620 9.0090 224° Southwest 232 267 7,100 -1,241 Descending FlightAware ADS-B
Sun 05:19:29 AM 50.1570 8.9990 232° Southwest 231 266 6,900 -1,286 Descending FlightAware ADS-B
Sun 05:19:49 AM 50.1480 8.9660 247° West 227 261 6,500 -750 Descending FlightAware ADS-B
Sun 05:20:09 AM 50.1410 8.9370 249° West 213 245 6,400 -667 Descending FlightAware ADS-B
Sun 05:20:25 AM 50.1360 8.9150 250° West 207 238 6,100 -1,000 Descending FlightAware ADS-B
Sun 05:20:39 AM 50.1320 8.8960 252° West 200 230 5,900 -1,200 Descending FlightAware ADS-B
Sun 05:21:05 AM 50.1240 8.8610 250° West 197 227 5,300 -1,304 Descending FlightAware ADS-B
Sun 05:21:25 AM 50.1170 8.8340 248° West 192 221 4,900 -1,091 Descending FlightAware ADS-B
Sun 05:21:49 AM 50.1100 8.8040 250° West 184 212 4,500 -977 Descending FlightAware ADS-B
Sun 05:22:08 AM 50.1040 8.7810 248° West 179 206 4,200 -1,200 Descending FlightAware ADS-B
Sun 05:22:29 AM 50.0990 8.7550 253° West 183 211 3,700 -1,297 Descending FlightAware ADS-B
Sun 05:22:45 AM 50.0940 8.7350 249° West 180 207 3,400 -1,167 Descending FlightAware ADS-B
Sun 05:23:05 AM 50.0880 8.7110 249° West 180 207 3,000 -1,125 Descending FlightAware ADS-B
Sun 05:23:17 AM 50.0850 8.6970 252° West 178 205 2,800 -1,167 Descending FlightAware ADS-B
Sun 05:23:41 AM 50.0780 8.6680 249° West 175 201 2,300 -955 Descending FlightAware ADS-B
Sun 05:24:01 AM 50.0720 8.6440 249° West 163 188 2,100 -750 Descending FlightAware ADS-B
Sun 05:24:13 AM 50.0690 8.6320 249° West 158 182 1,900 -938 Descending FlightAware ADS-B
Sun 05:24:33 AM 50.0640 8.6110 250° West 151 174 1,600 -857 Descending FlightAware ADS-B
Sun 05:24:55 AM 50.0590 8.5890 251° West 151 174 1,300 -913 Descending FlightAware ADS-B
Sun 05:25:19 AM 50.0530 8.5650 249° West 143 165 900 -955 Descending FlightAware ADS-B
Sun 05:25:39 AM 50.0490 8.5460 252° West 141 162 600 -750 Descending FlightAware ADS-B
Sun 05:25:59 AM 50.0440 8.5280 247° West 143 165 400 -600 Descending FlightAware ADS-B

Login

Don't have an account? Register now (free) for customized features, flight alerts, and more!